Location: Albany
(35.0000°S, 118.0000°E)
Time: 22:01:29
(UTC-04:00)

ISS - All Passes

Search period start: 24 September 2016 00:00
Search period end: 04 October 2016 00:00
Orbit: 400 x 410 km, 51.6° (Epoch: 25 September)

Date Brightness Start Highest point End Pass type
(mag) Time Alt. Az. Time Alt. Az. Time Alt. Az.
24 Sep - 03:33:08 10° SSW 03:35:55 23° SSE 03:38:39 10° E daylight
24 Sep - 05:09:28 10° WSW 05:12:24 29° NW 05:15:19 10° NNE daylight
24 Sep - 20:10:27 10° NNW 20:13:33 37° NE 20:16:42 10° ESE daylight
24 Sep - 21:47:33 10° W 21:50:09 21° SSW 21:52:47 10° SSE daylight
25 Sep - 02:41:39 10° S 02:43:39 15° SSE 02:45:39 10° ESE daylight
25 Sep - 04:17:09 10° SW 04:20:28 67° NW 04:23:43 10° NE daylight
25 Sep - 19:19:18 10° N 19:21:40 18° NE 19:24:02 10° E daylight
25 Sep - 20:54:50 10° WNW 20:57:57 35° SW 21:01:05 10° SSE daylight
26 Sep - 03:25:08 10° SW 03:28:25 56° SE 03:31:40 10° ENE daylight
26 Sep - 05:03:35 10° WNW 05:04:30 11° NW 05:05:25 10° NW daylight
26 Sep - 20:02:30 10° NW 20:05:50 72° SW 20:09:11 10° SE daylight
26 Sep - 21:41:39 10° SW 21:42:50 11° SSW 21:44:03 10° S daylight
27 Sep - 02:33:18 10° SSW 02:36:16 29° SE 02:39:12 10° E daylight
27 Sep - 04:09:58 10° WSW 04:12:39 22° NW 04:15:17 10° N daylight
27 Sep - 19:10:33 10° NNW 19:13:47 51° NE 19:17:04 10° ESE daylight
27 Sep - 20:48:10 10° WSW 20:50:30 17° SSW 20:52:50 10° SSE daylight
28 Sep - 01:41:39 10° SSW 01:44:01 18° SSE 01:46:20 10° ESE daylight
28 Sep - 03:17:28 10° WSW 03:20:42 48° NW 03:23:52 10° NNE daylight
28 Sep - 18:19:06 10° N 18:21:49 24° NE 18:24:34 10° ESE daylight
28 Sep - 19:55:16 10° W 19:58:13 28° SW 20:01:12 10° SSE daylight
29 Sep - 00:50:25 10° S 00:51:39 12° SSE 00:52:52 10° SE daylight
29 Sep - 02:25:19 10° SW 02:28:39 75° SE 02:31:56 10° NE daylight
29 Sep - 17:28:43 10° NNE 17:29:55 12° NE 17:31:08 10° ENE daylight
29 Sep - 19:02:46 10° WNW 19:06:02 54° SW 19:09:21 10° SE daylight
30 Sep - 01:33:22 10° SSW 01:36:29 36° SE 01:39:35 10° ENE daylight
30 Sep - 03:10:29 10° W 03:12:46 17° NW 03:15:01 10° N daylight
30 Sep - 18:10:36 10° NW 18:13:55 69° NE 18:17:16 10° SE daylight
30 Sep - 19:48:44 10° WSW 19:50:44 15° SSW 19:52:45 10° S daylight
01 Oct - 00:41:36 10° SSW 00:44:14 21° SSE 00:46:50 10° E daylight
01 Oct - 02:17:42 10° WSW 02:20:48 36° NW 02:23:51 10° NNE daylight
01 Oct - 17:18:54 10° NNW 17:21:53 31° NE 17:24:54 10° ESE visible
01 Oct - 18:55:38 10° W 18:58:24 23° SSW 19:01:11 10° SSE daylight
01 Oct - 23:50:07 10° S 23:51:52 13° SSE 23:53:37 10° ESE daylight
02 Oct - 01:25:24 10° SW 01:28:45 82° NW 01:32:02 10° NE daylight
02 Oct - 16:27:54 10° NNE 16:29:55 15° NE 16:31:57 10° E visible
02 Oct - 18:02:56 10° WNW 18:06:08 42° SW 18:09:21 10° SE daylight
03 Oct - 00:33:21 10° SW 00:36:35 46° SE 00:39:47 10° ENE daylight
03 Oct - 02:11:04 10° W 02:12:45 13° NW 02:14:25 10° NNW daylight
03 Oct - 17:10:37 10° NW 17:13:57 88° SW 17:17:20 10° SE visible
03 Oct - 18:49:17 10° SW 18:50:52 13° SSW 18:52:28 10° S daylight
03 Oct - 23:41:29 10° SSW 23:44:19 25° SE 23:47:09 10° E daylight
